| time (UTC) | temp F | wind direction | speed MPH | gust MPH | rain 1hr in | rain 24hr in | rain mn in | humidity % | barometer mb |
| 20260902073213 | 48 | 0 | 0.0 | 0.0 | 0.00 | 0.00 | 0.00 | 98 | 1021.6 |
| 20260902072004 | 49 | 0 | 0.0 | 0.0 | 0.00 | 0.00 | 0.00 | 98 | 1021.3 |
| 20260902071003 | 49 | 0 | 0.0 | 0.0 | 0.00 | 0.00 | 0.00 | 98 | 1021.3 |
| 20260902070004 | 49 | 0 | 0.0 | 0.0 | 0.00 | 0.00 | 0.00 | 98 | 1021.3 |
| 20260902065213 | 49 | 0 | 0.0 | 0.0 | 0.00 | 0.00 | 0.00 | 98 | 1021.3 |
| 20260902064003 | 49 | 0 | 0.0 | 0.0 | 0.00 | 0.00 | 0.00 | 98 | 1021.3 |
| 20260902063003 | 49 | 0 | 0.0 | 0.0 | 0.00 | 0.00 | 0.00 | 98 | 1021.0 |
| 20260902062004 | 50 | 0 | 0.0 | 0.0 | 0.00 | 0.00 | 0.00 | 98 | 1021.0 |
| 20260902061003 | 50 | 0 | 0.0 | 0.0 | 0.00 | 0.00 | 0.00 | 98 | 1021.0 |
| 20260902060003 | 50 | 93 | 0.0 | 1.0 | 0.00 | 0.00 | 0.00 | 98 | 1021.0 |
| 20260902055003 | 49 | 0 | 0.0 | 0.0 | 0.00 | 0.00 | 0.00 | 98 | 1021.0 |
| 20260902054003 | 50 | 0 | 0.0 | 0.0 | 0.00 | 0.00 | 0.00 | 98 | 1021.0 |
| 20260902053003 | 50 | 93 | 0.0 | 1.0 | 0.00 | 0.00 | 0.00 | 98 | 1021.0 |
| 20260902052003 | 50 | 93 | 0.0 | 1.0 | 0.00 | 0.00 | 0.00 | 98 | 1021.0 |
| 20260902051213 | 50 | 0 | 0.0 | 0.0 | 0.00 | 0.00 | 0.00 | 98 | 1020.6 |
| 20260902050006 | 51 | 0 | 0.0 | 0.0 | 0.00 | 0.00 | 0.00 | 97 | 1020.6 |
| 20260902045003 | 51 | 0 | 0.0 | 0.0 | 0.00 | 0.00 | 0.00 | 97 | 1020.6 |
| 20260902044003 | 51 | 0 | 0.0 | 0.0 | 0.00 | 0.00 | 0.00 | 97 | 1021.0 |
| 20260902043003 | 51 | 0 | 0.0 | 0.0 | 0.00 | 0.00 | 0.00 | 97 | 1020.6 |
| 20260902042003 | 51 | 0 | 0.0 | 0.0 | 0.00 | 0.00 | 0.00 | 97 | 1020.6 |
| 20260902041003 | 51 | 0 | 0.0 | 0.0 | 0.00 | 0.00 | 0.00 | 97 | 1020.6 |
| 20260902040003 | 52 | 0 | 0.0 | 0.0 | 0.00 | 0.00 | 0.00 | 97 | 1020.6 |
| 20260902035003 | 52 | 0 | 0.0 | 0.0 | 0.00 | 0.00 | 0.00 | 97 | 1021.0 |
| 20260902034003 | 52 | 0 | 0.0 | 0.0 | 0.00 | 0.00 | 0.00 | 97 | 1020.6 |
| 20260902033214 | 52 | 0 | 0.0 | 0.0 | 0.00 | 0.00 | 0.00 | 97 | 1021.0 |
| 20260902032003 | 53 | 0 | 0.0 | 0.0 | 0.00 | 0.00 | 0.00 | 97 | 1020.6 |
| 20260902031003 | 53 | 0 | 0.0 | 0.0 | 0.00 | 0.00 | 0.00 | 97 | 1020.6 |
| 20260902030004 | 53 | 0 | 0.0 | 0.0 | 0.00 | 0.00 | 0.00 | 96 | 1020.3 |
| 20260902025003 | 53 | 0 | 0.0 | 0.0 | 0.00 | 0.00 | 0.00 | 96 | 1020.3 |
| 20260902024003 | 53 | 0 | 0.0 | 0.0 | 0.00 | 0.00 | 0.00 | 96 | 1020.3 |
| 20260902023003 | 54 | 0 | 0.0 | 0.0 | 0.00 | 0.00 | 0.00 | 96 | 1020.3 |
| 20260902022003 | 54 | 0 | 0.0 | 0.0 | 0.00 | 0.00 | 0.00 | 96 | 1020.3 |
| 20260902021003 | 54 | 94 | 0.0 | 1.0 | 0.00 | 0.00 | 0.00 | 95 | 1020.3 |
| 20260902020004 | 54 | 0 | 0.0 | 0.0 | 0.00 | 0.00 | 0.00 | 95 | 1020.3 |
| 20260902015213 | 54 | 0 | 0.0 | 0.0 | 0.00 | 0.00 | 0.00 | 95 | 1020.3 |
| 20260902014003 | 55 | 0 | 0.0 | 0.0 | 0.00 | 0.00 | 0.00 | 94 | 1020.3 |
| 20260902013003 | 55 | 84 | 0.0 | 1.0 | 0.00 | 0.00 | 0.00 | 95 | 1019.9 |
| 20260902012003 | 55 | 81 | 0.0 | 3.0 | 0.00 | 0.00 | 0.00 | 95 | 1020.3 |
| 20260902011003 | 55 | 0 | 0.0 | 0.0 | 0.00 | 0.00 | 0.00 | 95 | 1020.3 |
| 20260902010003 | 55 | 0 | 0.0 | 0.0 | 0.00 | 0.00 | 0.00 | 94 | 1020.3 |
| 20260902005003 | 55 | 0 | 0.0 | 0.0 | 0.00 | 0.00 | 0.00 | 93 | 1019.9 |
| 20260902004213 | 55 | 247 | 0.0 | 1.0 | 0.00 | 0.00 | 0.00 | 94 | 1019.9 |
| 20260902003003 | 55 | 0 | 0.0 | 0.0 | 0.00 | 0.00 | 0.00 | 93 | 1019.9 |
| 20260902002003 | 56 | 0 | 0.0 | 0.0 | 0.00 | 0.00 | 0.00 | 92 | 1019.9 |
| 20260902001003 | 56 | 0 | 0.0 | 0.0 | 0.00 | 0.00 | 0.00 | 92 | 1019.6 |
| 20260902000003 | 56 | 0 | 0.0 | 0.0 | 0.00 | 0.00 | 0.00 | 91 | 1019.6 |
| 20260901235003 | 57 | 0 | 0.0 | 0.0 | 0.00 | 0.00 | 0.00 | 90 | 1019.3 |
| 20260901234003 | 57 | 0 | 0.0 | 0.0 | 0.00 | 0.00 | 0.00 | 89 | 1019.6 |
| 20260901233003 | 58 | 0 | 0.0 | 0.0 | 0.00 | 0.00 | 0.00 | 88 | 1019.3 |
| 20260901232003 | 59 | 109 | 0.0 | 1.0 | 0.00 | 0.00 | 0.00 | 86 | 1018.9 |
| 20260901231003 | 60 | 0 | 0.0 | 0.0 | 0.00 | 0.00 | 0.00 | 84 | 1019.3 |
| 20260901230004 | 60 | 102 | 0.0 | 3.0 | 0.00 | 0.00 | 0.00 | 81 | 1019.3 |
| 20260901225003 | 61 | 81 | 0.0 | 2.0 | 0.00 | 0.00 | 0.00 | 80 | 1018.9 |
| 20260901224003 | 61 | 90 | 0.0 | 1.0 | 0.00 | 0.00 | 0.00 | 78 | 1018.9 |
| 20260901223004 | 62 | 158 | 0.0 | 1.0 | 0.00 | 0.00 | 0.00 | 75 | 1018.9 |
| 20260901222003 | 63 | 128 | 0.0 | 1.0 | 0.00 | 0.00 | 0.00 | 73 | 1018.9 |
| 20260901221003 | 63 | 95 | 0.0 | 4.0 | 0.00 | 0.00 | 0.00 | 71 | 1018.9 |
| 20260901220003 | 64 | 117 | 0.0 | 2.0 | 0.00 | 0.00 | 0.00 | 70 | 1018.9 |
| 20260901215003 | 64 | 73 | 1.0 | 4.0 | 0.00 | 0.00 | 0.00 | 69 | 1018.6 |
| 20260901214003 | 65 | 89 | 1.0 | 3.0 | 0.00 | 0.00 | 0.00 | 67 | 1018.6 |
| 20260901213003 | 65 | 68 | 1.0 | 7.0 | 0.00 | 0.00 | 0.00 | 66 | 1018.9 |
| 20260901212003 | 66 | 71 | 1.0 | 6.0 | 0.00 | 0.00 | 0.00 | 65 | 1018.6 |
| 20260901211003 | 66 | 89 | 1.0 | 6.0 | 0.00 | 0.00 | 0.00 | 61 | 1018.9 |
| 20260901210003 | 67 | 80 | 1.0 | 6.0 | 0.00 | 0.00 | 0.00 | 60 | 1018.6 |
| 20260901205003 | 68 | 85 | 1.0 | 6.0 | 0.00 | 0.00 | 0.00 | 58 | 1018.2 |
| 20260901204003 | 68 | 68 | 1.0 | 4.0 | 0.00 | 0.00 | 0.00 | 56 | 1018.6 |
| 20260901203003 | 69 | 64 | 1.0 | 6.0 | 0.00 | 0.00 | 0.00 | 57 | 1018.2 |
| 20260901202213 | 69 | 71 | 2.0 | 7.0 | 0.00 | 0.00 | 0.00 | 58 | 1017.9 |
| 20260901201213 | 69 | 67 | 2.0 | 7.0 | 0.00 | 0.00 | 0.00 | 61 | 1018.2 |
| 20260901200004 | 69 | 50 | 1.0 | 7.0 | 0.00 | 0.00 | 0.00 | 58 | 1018.2 |
| 20260901195003 | 69 | 58 | 2.0 | 6.0 | 0.00 | 0.00 | 0.00 | 54 | 1018.2 |
| 20260901194003 | 70 | 77 | 1.0 | 7.0 | 0.00 | 0.00 | 0.00 | 57 | 1017.9 |
| 20260901193003 | 70 | 43 | 2.0 | 7.0 | 0.00 | 0.00 | 0.00 | 58 | 1017.9 |
| 20260901192213 | 70 | 65 | 2.0 | 8.0 | 0.00 | 0.00 | 0.00 | 59 | 1017.9 |
| 20260901191003 | 70 | 71 | 2.0 | 9.0 | 0.00 | 0.00 | 0.00 | 59 | 1017.9 |
| 20260901190004 | 70 | 71 | 1.0 | 6.0 | 0.00 | 0.00 | 0.00 | 56 | 1017.6 |
| 20260901185003 | 71 | 82 | 2.0 | 9.0 | 0.00 | 0.00 | 0.00 | 59 | 1017.6 |
| 20260901184003 | 70 | 62 | 2.0 | 9.0 | 0.00 | 0.00 | 0.00 | 60 | 1017.6 |
| 20260901183215 | 69 | 80 | 1.0 | 9.0 | 0.00 | 0.00 | 0.00 | 62 | 1017.6 |
| 20260901182003 | 71 | 80 | 2.0 | 10.0 | 0.00 | 0.00 | 0.00 | 60 | 1017.6 |
| 20260901181212 | 70 | 80 | 1.0 | 6.0 | 0.00 | 0.00 | 0.00 | 55 | 1017.6 |
| 20260901180004 | 71 | 57 | 2.0 | 11.0 | 0.00 | 0.00 | 0.00 | 56 | 1017.2 |
| 20260901175003 | 71 | 68 | 2.0 | 7.0 | 0.00 | 0.00 | 0.00 | 56 | 1017.2 |
| 20260901174214 | 71 | 64 | 2.0 | 9.0 | 0.00 | 0.00 | 0.00 | 55 | 1017.2 |
| 20260901173003 | 71 | 79 | 3.0 | 10.0 | 0.00 | 0.00 | 0.00 | 58 | 1017.6 |
| 20260901172214 | 71 | 68 | 3.0 | 10.0 | 0.00 | 0.00 | 0.00 | 55 | 1017.6 |
| 20260901171003 | 70 | 80 | 3.0 | 9.0 | 0.00 | 0.00 | 0.00 | 58 | 1017.6 |
| 20260901170003 | 70 | 67 | 2.0 | 7.0 | 0.00 | 0.00 | 0.00 | 58 | 1017.6 |
| 20260901165004 | 70 | 55 | 2.0 | 9.0 | 0.00 | 0.00 | 0.00 | 59 | 1017.6 |
| 20260901164214 | 70 | 56 | 2.0 | 13.0 | 0.00 | 0.00 | 0.00 | 64 | 1017.2 |
| 20260901163003 | 68 | 71 | 2.0 | 8.0 | 0.00 | 0.00 | 0.00 | 71 | 1017.6 |
| 20260901162003 | 67 | 62 | 1.0 | 4.0 | 0.00 | 0.00 | 0.00 | 73 | 1017.6 |
| 20260901161003 | 66 | 314 | 1.0 | 8.0 | 0.00 | 0.00 | 0.00 | 74 | 1017.6 |
| 20260901160003 | 66 | 327 | 1.0 | 6.0 | 0.00 | 0.00 | 0.00 | 73 | 1017.6 |
| 20260901155003 | 65 | 77 | 1.0 | 7.0 | 0.00 | 0.00 | 0.00 | 76 | 1017.6 |
| 20260901154214 | 67 | 59 | 1.0 | 4.0 | 0.00 | 0.00 | 0.00 | 72 | 1017.6 |
| 20260901153003 | 68 | 67 | 1.0 | 4.0 | 0.00 | 0.00 | 0.00 | 67 | 1017.6 |
| 20260901152003 | 69 | 70 | 2.0 | 6.0 | 0.00 | 0.00 | 0.00 | 66 | 1017.2 |
| 20260901151003 | 69 | 72 | 2.0 | 14.0 | 0.00 | 0.00 | 0.00 | 67 | 1017.2 |
| 20260901150003 | 68 | 44 | 2.0 | 7.0 | 0.00 | 0.00 | 0.00 | 67 | 1017.6 |
| 20260901145003 | 67 | 287 | 1.0 | 7.0 | 0.00 | 0.00 | 0.00 | 68 | 1017.2 |
| 20260901144003 | 67 | 73 | 1.0 | 3.0 | 0.00 | 0.00 | 0.00 | 73 | 1017.2 |
| 20260901143003 | 66 | 98 | 1.0 | 4.0 | 0.00 | 0.00 | 0.00 | 74 | 1017.2 |
| 20260901142213 | 67 | 286 | 1.0 | 4.0 | 0.00 | 0.00 | 0.00 | 71 | 1017.2 |
| 20260901141003 | 68 | 307 | 2.0 | 6.0 | 0.00 | 0.00 | 0.00 | 69 | 1017.2 |
| 20260901140003 | 68 | 326 | 2.0 | 6.0 | 0.00 | 0.00 | 0.00 | 70 | 1016.9 |
| 20260901135003 | 68 | 275 | 1.0 | 3.0 | 0.00 | 0.00 | 0.00 | 70 | 1016.9 |
| 20260901134003 | 70 | 276 | 1.0 | 7.0 | 0.00 | 0.00 | 0.00 | 69 | 1016.9 |
| 20260901133003 | 69 | 292 | 1.0 | 3.0 | 0.00 | 0.00 | 0.00 | 68 | 1016.5 |
| 20260901132003 | 68 | 222 | 1.0 | 3.0 | 0.00 | 0.00 | 0.00 | 70 | 1016.9 |
| 20260901131003 | 67 | 248 | 0.0 | 3.0 | 0.00 | 0.00 | 0.00 | 71 | 1016.9 |
| 20260901130003 | 66 | 300 | 1.0 | 3.0 | 0.00 | 0.00 | 0.00 | 73 | 1016.9 |
| 20260901125003 | 65 | 312 | 1.0 | 4.0 | 0.00 | 0.00 | 0.00 | 73 | 1016.9 |
| 20260901124003 | 64 | 290 | 1.0 | 4.0 | 0.00 | 0.00 | 0.00 | 74 | 1016.9 |
| 20260901123003 | 63 | 281 | 1.0 | 3.0 | 0.00 | 0.00 | 0.00 | 75 | 1016.9 |
| 20260901122003 | 63 | 303 | 1.0 | 4.0 | 0.00 | 0.00 | 0.00 | 76 | 1016.9 |
| 20260901121214 | 62 | 287 | 1.0 | 3.0 | 0.00 | 0.00 | 0.00 | 75 | 1016.9 |
| 20260901120003 | 61 | 279 | 1.0 | 2.0 | 0.00 | 0.00 | 0.00 | 77 | 1016.9 |
| 20260901115003 | 60 | 248 | 0.0 | 2.0 | 0.00 | 0.00 | 0.00 | 79 | 1016.5 |
| 20260901114003 | 59 | 239 | 1.0 | 2.0 | 0.00 | 0.00 | 0.00 | 81 | 1016.9 |
| 20260901113003 | 59 | 261 | 0.0 | 1.0 | 0.00 | 0.00 | 0.00 | 82 | 1016.9 |
| 20260901112003 | 57 | 257 | 1.0 | 2.0 | 0.00 | 0.00 | 0.00 | 86 | 1016.5 |
| 20260901111003 | 57 | 265 | 0.0 | 2.0 | 0.00 | 0.00 | 0.00 | 89 | 1016.9 |
| 20260901110003 | 55 | 228 | 1.0 | 2.0 | 0.00 | 0.00 | 0.00 | 93 | 1016.5 |
| 20260901105003 | 54 | 223 | 0.0 | 3.0 | 0.00 | 0.00 | 0.00 | 96 | 1016.2 |
| 20260901104003 | 53 | 218 | 0.0 | 2.0 | 0.00 | 0.00 | 0.00 | 97 | 1016.5 |
| 20260901103003 | 53 | 226 | 0.0 | 1.0 | 0.00 | 0.00 | 0.00 | 97 | 1016.2 |
| 20260901102003 | 53 | 225 | 0.0 | 1.0 | 0.00 | 0.00 | 0.00 | 97 | 1015.8 |
| 20260901101003 | 53 | 230 | 0.0 | 1.0 | 0.00 | 0.00 | 0.00 | 97 | 1016.2 |
| 20260901100003 | 53 | 231 | 0.0 | 1.0 | 0.00 | 0.00 | 0.00 | 97 | 1016.2 |
| 20260901095003 | 53 | 0 | 0.0 | 0.0 | 0.00 | 0.00 | 0.00 | 97 | 1015.8 |
| 20260901094003 | 53 | 0 | 0.0 | 0.0 | 0.00 | 0.00 | 0.00 | 97 | 1016.2 |
| 20260901093003 | 53 | 0 | 0.0 | 0.0 | 0.00 | 0.00 | 0.00 | 97 | 1015.8 |
| 20260901092213 | 53 | 0 | 0.0 | 0.0 | 0.00 | 0.00 | 0.00 | 97 | 1015.8 |
| 20260901091003 | 53 | 294 | 0.0 | 1.0 | 0.00 | 0.00 | 0.00 | 97 | 1016.2 |
| 20260901090003 | 54 | 294 | 0.0 | 1.0 | 0.00 | 0.00 | 0.00 | 97 | 1015.8 |
| 20260901085003 | 54 | 294 | 0.0 | 1.0 | 0.00 | 0.00 | 0.00 | 97 | 1015.8 |
| 20260901084003 | 54 | 0 | 0.0 | 0.0 | 0.00 | 0.00 | 0.00 | 97 | 1015.8 |
| 20260901083003 | 54 | 0 | 0.0 | 0.0 | 0.00 | 0.00 | 0.00 | 96 | 1015.5 |
| 20260901082003 | 54 | 0 | 0.0 | 0.0 | 0.00 | 0.00 | 0.00 | 96 | 1015.5 |
| 20260901081003 | 55 | 0 | 0.0 | 0.0 | 0.00 | 0.00 | 0.00 | 96 | 1015.5 |
| 20260901080213 | 55 | 0 | 0.0 | 0.0 | 0.00 | 0.00 | 0.00 | 96 | 1015.5 |
| 20260901075003 | 56 | 0 | 0.0 | 0.0 | 0.00 | 0.00 | 0.00 | 95 | 1015.5 |
| 20260901074213 | 56 | 0 | 0.0 | 0.0 | 0.00 | 0.00 | 0.00 | 95 | 1015.2 |